Fayetteville, NC

6:45 AM EST on December 13, 2017 (GMT -0500)
Fayetteville Regional-Grannis

Weather History for KFAY - April, 2013

Change the Weather History Date:

Wednesday, April 24, 2013

  Actual Average Record
Temperature  
Mean Temperature 65 °F 65 °F  
Max Temperature 79 °F 77 °F 95 °F (1925)
Min Temperature 50 °F 52 °F 34 °F (1986)
Degree Days  
Heating Degree Days 0 3  
Month to date heating degree days 116 122  
Since 1 July heating degree days 2718 2691  
Cooling Degree Days 0 3  
Month to date cooling degree days 59 47  
Year to date cooling degree days 67 63  
Growing Degree Days 14 (Base 50)    
Moisture  
Dew Point 52 °F    
Average Humidity 68    
Maximum Humidity 96    
Minimum Humidity 39    
Precipitation  
Precipitation 0.00 in 0.09 in 2.74 in (2017)
Month to date precipitation 2.01 2.43  
Year to date precipitation 9.32 12.04  
Sea Level Pressure  
Sea Level Pressure 30.08 in    
Wind  
Wind Speed 9 mph (SSW)    
Max Wind Speed 21 mph    
Max Gust Speed 26 mph    
Visibility 9 miles    
Events      
T = Trace of Precipitation, MM = Missing Value Source: NWS Daily Summary

Daily Weather History Graph

Daily Weather History Graph

Search for Another Location

Airport or City:

Trip Planner

Search our weather history database for the weather conditions in past years. The results will help you decide how hot, cold, wet, or windy it might be!

Date:

Astronomy

Apr. 24, 2013 Rise Set
Actual Time 6:32 AM EDT 7:55 PM EDT
Civil Twilight 6:05 AM EDT 8:22 PM EDT
Nautical Twilight 5:33 AM EDT 8:54 PM EDT
Astronomical Twilight 5:00 AM EDT 9:27 PM EDT
Moon 6:58 PM EDT (4/24) 5:32 AM EDT (4/24)
Length of Visible Light 14h 16m
Length of Day
13h 23m
Waxing Gibbous, 98% of the Moon is Illuminated
Apr 24
Waxing Gibbous
Apr 25
Full
May 2
Last Quarter
May 9
New
May 18
First Quarter

Hourly Weather History & Observations

Time (EDT) Temp. Dew Point Humidity Pressure Visibility Wind Dir Wind Speed Gust Speed Precip Events Conditions
12:53 AM 52.0 °F 48.0 °F 86% 30.14 in 10.0 mi SSW 3.5 mph - N/A   Clear
1:53 AM 52.0 °F 48.9 °F 89% 30.13 in 10.0 mi South 3.5 mph - N/A   Clear
2:53 AM 51.1 °F 48.9 °F 92% 30.12 in 7.0 mi SSW 6.9 mph - N/A   Clear
3:53 AM 51.1 °F 50.0 °F 96% 30.12 in 6.0 mi SSW 5.8 mph - N/A   Clear
4:53 AM 50.0 °F 48.9 °F 96% 30.12 in 5.0 mi SSW 3.5 mph - N/A   Clear
6:53 AM 50.0 °F 48.9 °F 96% 30.14 in 2.5 mi SW 4.6 mph - N/A   Clear
7:53 AM 53.1 °F 52.0 °F 96% 30.15 in 5.0 mi SSW 4.6 mph - N/A   Clear
8:53 AM 59.0 °F 54.0 °F 83% 30.16 in 10.0 mi SW 9.2 mph - N/A   Clear
9:53 AM 64.9 °F 53.1 °F 65% 30.15 in 10.0 mi SSW 13.8 mph 19.6 mph N/A   Clear
10:53 AM 68.0 °F 53.1 °F 59% 30.14 in 10.0 mi SSW 13.8 mph - N/A   Clear
11:53 AM 71.1 °F 52.0 °F 51% 30.11 in 10.0 mi South 11.5 mph - N/A   Clear
12:53 PM 73.9 °F 52.0 °F 46% 30.08 in 10.0 mi SSW 10.4 mph 20.7 mph N/A   Clear
1:53 PM 77.0 °F 52.0 °F 42% 30.08 in 10.0 mi SSW 18.4 mph - N/A   Clear
2:53 PM 78.1 °F 51.1 °F 39% 30.06 in 10.0 mi SW 11.5 mph 21.9 mph N/A   Clear
3:53 PM 79.0 °F 51.1 °F 38% 30.04 in 10.0 mi SW 15.0 mph 26.5 mph N/A   Partly Cloudy
4:53 PM 77.0 °F 52.0 °F 42% 30.03 in 10.0 mi SW 15.0 mph 23.0 mph N/A   Partly Cloudy
5:53 PM 75.9 °F 52.0 °F 43% 30.01 in 10.0 mi SSW 10.4 mph - N/A   Clear
6:53 PM 75.0 °F 52.0 °F 44% 30.00 in 10.0 mi SSW 8.1 mph - N/A   Clear
7:53 PM 72.0 °F 52.0 °F 49% 30.01 in 10.0 mi SSW 6.9 mph - N/A   Clear
8:53 PM 69.1 °F 53.1 °F 57% 30.02 in 10.0 mi South 9.2 mph - N/A   Clear
9:53 PM 68.0 °F 57.9 °F 70% 30.04 in 10.0 mi South 8.1 mph - N/A   Clear
10:53 PM 66.9 °F 57.9 °F 73% 30.04 in 10.0 mi South 8.1 mph - N/A   Clear
11:53 PM 66.9 °F 57.9 °F 73% 30.03 in 10.0 mi SSW 8.1 mph - N/A   Clear